STARLINK-4582 (53569 NORAD) Tracking and Keplerian Element Data

This shows tracking and keplerian element data for the satellite.

Feedback or suggestion? Click here.




ElementValue
Catalog53569
NameSTARLINK-4582
Epoch Orbit1461
Epoch Day325.25001157
Epoch Year2022
RAAN61.0788
Inclination53.2151
Eccentricity0.0001563
Argument of Perigee56.7837
Mean Anonmoly4.2948
Mean Motion15.08827732
Decay Rate0.00040646
L11 53569U 22101AU 22325.25001157 .00040646 00000+0 25581-2 0 9991
L22 53569 53.2151 61.0788 0001563 56.7837 4.2948 15.08827732 14610



Live tracking and technical data element details for STARLINK-4582 (NORAD 53569). STARLINK-4582 can be tracked NOW for your location showing map with azimuth and elevation plus other details from your city location.







IsCatalogInMostPopularTable: catalog: 53569, numindb: 4
Update: records affected: 1



GetName: 53569 STARLINK-4582

Hit Count: updated at: Thu, 08 Dec 2022 18:56:28 GMT